When you browse on this site, cookies collect data to enhance your experience and personalize the content and advertising you see.
Visit our Privacy Policy to learn more. By continuing to use the site, you agree to this use of cookies and data.

Hourly Weather Pernik

Today, 25 September, Friday

Time Temperature Precipitation Wind Pressure Humidity
00:00 +12°C° 0 mm 0 mps 688 mmHg 84%
01:00 +12°C° 0 mm 0 mps 688 mmHg 84%
02:00 +12°C° 0 mm 0 mps 688 mmHg 84%
03:00 +11°C° 0 mm 0 mps 688 mmHg 84%
04:00 +11°C° 0 mm 0 mps 688 mmHg 84%
05:00 +11°C° 0 mm 0 mps 688 mmHg 84%
06:00 +12°C° 0 mm 0 mps 688 mmHg 79%
07:00 +14°C° 0 mm 1 mps 688 mmHg 75%
08:00 +16°C° 0 mm 1 mps 688 mmHg 70%
09:00 +19°C° 0 mm 1 mps 688 mmHg 61%
10:00 +21°C° 0 mm 2 mps 688 mmHg 51%
11:00 +24°C° 0 mm 2 mps 688 mmHg 42%
12:00 +25°C° 0 mm 3 mps 688 mmHg 38%
13:00 +26°C° 0 mm 3 mps 687 mmHg 35%
14:00 +27°C° 0 mm 4 mps 687 mmHg 31%
15:00 +27°C° 0 mm 4 mps 686 mmHg 33%
16:00 +26°C° 0 mm 4 mps 686 mmHg 36%
17:00 +25°C° 0 mm 3 mps 685 mmHg 38%
18:00 +24°C° 0 mm 3 mps 685 mmHg 41%
19:00 +21°C° 0 mm 3 mps 684 mmHg 45%
20:00 +20°C° 0 mm 2 mps 684 mmHg 49%
21:00 +19°C° 0 mm 2 mps 684 mmHg 51%
22:00 +18°C° 0 mm 2 mps 683 mmHg 53%
23:00 +17°C° 0 mm 2 mps 683 mmHg 56%

Tomorrow, 26 September, Saturday

Time Temperature Precipitation Wind Pressure Humidity
00:00 +17°C° 0 mm 2 mps 682 mmHg 59%
01:00 +16°C° 0 mm 2 mps 682 mmHg 62%
02:00 +16°C° 0 mm 2 mps 681 mmHg 65%
03:00 +16°C° 0 mm 3 mps 681 mmHg 67%
04:00 +16°C° 0 mm 3 mps 680 mmHg 68%
05:00 +16°C° 0 mm 3 mps 680 mmHg 70%
06:00 +15°C° 0.2 mm 4 mps 680 mmHg 70%
07:00 +15°C° 0.2 mm 5 mps 680 mmHg 70%
08:00 +16°C° 0.2 mm 5 mps 680 mmHg 70%
09:00 +16°C° 0.3 mm 5 mps 680 mmHg 70%
10:00 +17°C° 0.3 mm 5 mps 680 mmHg 70%
11:00 +17°C° 0.3 mm 5 mps 679 mmHg 70%
12:00 +17°C° 1.5 mm 4 mps 679 mmHg 74%
13:00 +17°C° 1.5 mm 3 mps 678 mmHg 78%
14:00 +16°C° 1.5 mm 1 mps 678 mmHg 81%
15:00 +15°C° 3.5 mm 1 mps 677 mmHg 84%
16:00 +14°C° 3.5 mm 1 mps 677 mmHg 87%
17:00 +14°C° 3.5 mm 2 mps 677 mmHg 90%
18:00 +13°C° 0.8 mm 2 mps 678 mmHg 87%
19:00 +13°C° 0.8 mm 2 mps 678 mmHg 85%
20:00 +11°C° 0.8 mm 3 mps 679 mmHg 82%
21:00 +11°C° 0.2 mm 3 mps 679 mmHg 83%
22:00 +10°C° 0.2 mm 3 mps 680 mmHg 83%
23:00 +9°C° 0.2 mm 3 mps 680 mmHg 83%

Day after tomorrow, 27 September, Sunday

Time Temperature Precipitation Wind Pressure Humidity
00:00 +9°C° 0 mm 2 mps 681 mmHg 84%
01:00 +8°C° 0 mm 2 mps 681 mmHg 85%
02:00 +8°C° 0 mm 2 mps 681 mmHg 86%
03:00 +8°C° 0 mm 2 mps 682 mmHg 86%
04:00 +7°C° 0 mm 2 mps 682 mmHg 86%
05:00 +8°C° 0 mm 1 mps 683 mmHg 87%
06:00 +9°C° 0 mm 1 mps 683 mmHg 83%
07:00 +10°C° 0 mm 1 mps 684 mmHg 79%
08:00 +11°C° 0 mm 1 mps 684 mmHg 76%
09:00 +12°C° 0 mm 3 mps 685 mmHg 65%
10:00 +14°C° 0 mm 4 mps 685 mmHg 55%
11:00 +16°C° 0 mm 5 mps 686 mmHg 45%
12:00 +17°C° 0 mm 6 mps 686 mmHg 42%
13:00 +18°C° 0 mm 7 mps 686 mmHg 39%
14:00 +20°C° 0 mm 7 mps 686 mmHg 37%
15:00 +18°C° 0 mm 7 mps 686 mmHg 41%
16:00 +17°C° 0 mm 6 mps 686 mmHg 46%
17:00 +17°C° 0 mm 6 mps 686 mmHg 50%
18:00 +15°C° 0 mm 5 mps 686 mmHg 56%
19:00 +14°C° 0 mm 4 mps 687 mmHg 62%
20:00 +12°C° 0 mm 3 mps 687 mmHg 68%
21:00 +12°C° 0 mm 2 mps 688 mmHg 70%
22:00 +12°C° 0 mm 2 mps 688 mmHg 72%
23:00 +11°C° 0 mm 1 mps 688 mmHg 74%

28 September, Monday

Time Temperature Precipitation Wind Pressure Humidity
00:00 +11°C° 0 mm 1 mps 688 mmHg 75%
01:00 +11°C° 0 mm 1 mps 689 mmHg 75%
02:00 +10°C° 0 mm 1 mps 689 mmHg 76%
03:00 +10°C° 0 mm 1 mps 689 mmHg 76%
04:00 +10°C° 0 mm 1 mps 688 mmHg 77%
05:00 +10°C° 0 mm 1 mps 688 mmHg 77%
06:00 +11°C° 0 mm 1 mps 688 mmHg 73%
07:00 +12°C° 0 mm 1 mps 689 mmHg 70%
08:00 +13°C° 0 mm 1 mps 689 mmHg 66%
09:00 +15°C° 0 mm 2 mps 689 mmHg 60%
10:00 +17°C° 0 mm 3 mps 689 mmHg 54%
11:00 +20°C° 0 mm 4 mps 689 mmHg 48%
12:00 +20°C° 0 mm 5 mps 689 mmHg 47%
13:00 +21°C° 0 mm 5 mps 689 mmHg 47%
14:00 +22°C° 0 mm 6 mps 689 mmHg 46%
15:00 +21°C° 0.1 mm 5 mps 688 mmHg 50%
16:00 +21°C° 0.1 mm 4 mps 688 mmHg 54%
17:00 +20°C° 0.1 mm 3 mps 687 mmHg 57%
18:00 +18°C° 0.4 mm 3 mps 687 mmHg 66%
19:00 +17°C° 0.4 mm 2 mps 687 mmHg 74%
20:00 +15°C° 0.4 mm 1 mps 687 mmHg 83%
21:00 +15°C° 1.1 mm 2 mps 687 mmHg 85%
22:00 +14°C° 1.1 mm 2 mps 687 mmHg 86%
23:00 +14°C° 1.1 mm 2 mps 687 mmHg 88%

29 September, Tuesday

Time Temperature Precipitation Wind Pressure Humidity
00:00 +12°C° 2.7 mm 3 mps 687 mmHg 89%
01:00 +11°C° 2.7 mm 3 mps 687 mmHg 90%
02:00 +10°C° 2.7 mm 3 mps 687 mmHg 92%
03:00 +10°C° 0.4 mm 2 mps 687 mmHg 92%
04:00 +10°C° 0.4 mm 1 mps 687 mmHg 92%
05:00 +10°C° 0.4 mm 1 mps 686 mmHg 93%
06:00 +10°C° 0.1 mm 1 mps 687 mmHg 91%
07:00 +11°C° 0.1 mm 1 mps 687 mmHg 89%
08:00 +11°C° 0.1 mm 1 mps 688 mmHg 87%
09:00 +12°C° 0.1 mm 2 mps 688 mmHg 82%
10:00 +13°C° 0.1 mm 2 mps 688 mmHg 77%
11:00 +13°C° 0.1 mm 3 mps 689 mmHg 72%
12:00 +14°C° 0.1 mm 3 mps 689 mmHg 64%
13:00 +15°C° 0.1 mm 4 mps 689 mmHg 57%
14:00 +16°C° 0.1 mm 5 mps 689 mmHg 50%
15:00 +17°C° 0 mm 4 mps 689 mmHg 52%
16:00 +17°C° 0 mm 4 mps 689 mmHg 53%
17:00 +15°C° 0 mm 4 mps 689 mmHg 55%
18:00 +14°C° 0 mm 3 mps 689 mmHg 61%
19:00 +13°C° 0 mm 2 mps 690 mmHg 67%
20:00 +12°C° 0 mm 1 mps 690 mmHg 72%
21:00 +12°C° 0 mm 1 mps 690 mmHg 73%
22:00 +11°C° 0 mm 1 mps 690 mmHg 74%
23:00 +11°C° 0 mm 1 mps 690 mmHg 74%

30 September, Wednesday

Time Temperature Precipitation Wind Pressure Humidity
00:00 +11°C° 0 mm 1 mps 690 mmHg 75%
01:00 +11°C° 0 mm 1 mps 689 mmHg 75%
02:00 +11°C° 0 mm 1 mps 689 mmHg 75%
03:00 +10°C° 0 mm 1 mps 689 mmHg 76%
04:00 +10°C° 0 mm 1 mps 689 mmHg 77%
05:00 +10°C° 0 mm 1 mps 689 mmHg 78%
06:00 +11°C° 0 mm 1 mps 689 mmHg 74%
07:00 +12°C° 0 mm 1 mps 689 mmHg 71%
08:00 +13°C° 0 mm 1 mps 689 mmHg 67%
09:00 +15°C° 0 mm 1 mps 689 mmHg 61%
10:00 +18°C° 0 mm 1 mps 690 mmHg 54%
11:00 +20°C° 0 mm 1 mps 690 mmHg 48%
12:00 +21°C° 0 mm 1 mps 689 mmHg 45%
13:00 +21°C° 0 mm 2 mps 689 mmHg 43%
14:00 +21°C° 0 mm 2 mps 689 mmHg 41%
15:00 +22°C° 0 mm 1 mps 688 mmHg 44%
16:00 +21°C° 0 mm 1 mps 688 mmHg 47%
17:00 +21°C° 0 mm 1 mps 688 mmHg 51%
18:00 +19°C° 0 mm 1 mps 688 mmHg 56%
19:00 +16°C° 0 mm 1 mps 687 mmHg 62%
20:00 +14°C° 0 mm 1 mps 687 mmHg 67%
21:00 +14°C° 0 mm 1 mps 687 mmHg 68%
22:00 +12°C° 0 mm 0 mps 687 mmHg 70%
23:00 +12°C° 0 mm 0 mps 687 mmHg 71%
Show more